QPF
0.00 0.00 0.00 0.00 0.01 0.03 0.06 0.05 0.04 0.16 0.34 0.34 0.39 0.34 0.34 0.23 0.15 0.12 0.07 0.07 0.05 0.03 0.01 0.02 0.01 0.03 0.07 0.03 0.02 0.01 0.01 0.02 0.00 0.00 0.00 0.00 0.01 0.00 0.00 0.00 0.00 0.00 0.00
0.00 0.00 0.02 0.02 0.00 0.00 0.01 0.05 0.09 0.17 0.31 0.28 0.37 0.16 0.12 0.15 0.17 0.15 0.13 0.10 0.06 0.03 0.02 0.02 0.01 0.01 0.01 0.02 0.03 0.02 0.01 0.02 0.01 0.01 0.01 0.02 0.03 0.01 0.00 0.00 0.00 0.00 0.00
0.01 0.05 0.09 0.08 0.04 0.00 0.00 0.02 0.07 0.15 0.22 0.25 0.34 0.22 0.12 0.03 0.11 0.14 0.10 0.09 0.09 0.07 0.03 0.02 0.01 0.01 0.01 0.01 0.01 0.01 0.02 0.02 0.01 0.00 0.00 0.02 0.01 0.00 0.01 0.00 0.00 0.00 0.00
0.05 0.12 0.14 0.12 0.12 0.02 0.03 0.02 0.01 0.02 0.11 0.17 0.32 0.32 0.26 0.11 0.06 0.10 0.14 0.11 0.12 0.11 0.04 0.01 0.01 0.01 0.00 0.01 0.01 0.01 0.04 0.03 0.03 0.01 0.00 0.00 0.00 0.00 0.00 0.00 0.01 0.01 0.00
0.08 0.09 0.10 0.08 0.08 0.04 0.03 0.06 0.03 0.05 0.03 0.01 0.07 0.09 0.11 0.16 0.18 0.12 0.16 0.19 0.15 0.12 0.06 0.01 0.01 0.02 0.00 0.00 0.01 0.01 0.02 0.01 0.03 0.02 0.00 0.00 0.00 0.01 0.00 0.00 0.00 0.02 0.03
0.10 0.09 0.09 0.09 0.07 0.06 0.05 0.06 0.06 0.06 0.04 0.01 0.01 0.02 0.01 0.06 0.16 0.18 0.12 0.13 0.15 0.15 0.14 0.06 0.04 0.05 0.02 0.01 0.00 0.05 0.14 0.05 0.02 0.01 0.00 0.00 0.02 0.02 0.01 0.02 0.02 0.02 0.01
0.08 0.08 0.05 0.07 0.14 0.15 0.14 0.14 0.11 0.06 0.04 0.02 0.01 0.01 0.01 0.01 0.00 0.03 0.07 0.07 0.12 0.16 0.16 0.12 0.08 0.06 0.13 0.11 0.07 0.09 0.04 0.01 0.03 0.05 0.01 0.03 0.05 0.04 0.03 0.04 0.05 0.04 0.03
0.01 0.01 0.01 0.04 0.18 0.23 0.28 0.22 0.14 0.06 0.05 0.02 0.01 0.02 0.03 0.03 0.00 0.00 0.01 0.03 0.05 0.06 0.07 0.08 0.07 0.12 0.16 0.17 0.16 0.13 0.05 0.03 0.02 0.03 0.02 0.06 0.08 0.09 0.09 0.12 0.10 0.07 0.04
0.01 0.00 0.01 0.04 0.11 0.11 0.16 0.20 0.21 0.13 0.14 0.13 0.06 0.05 0.04 0.05 0.00 0.00 0.00 0.02 0.03 0.07 0.07 0.07 0.08 0.14 0.20 0.21 0.22 0.23 0.18 0.10 0.07 0.12 0.10 0.05 0.04 0.05 0.08 0.12 0.09 0.09 0.07
0.01 0.02 0.04 0.09 0.12 0.08 0.08 0.18 0.18 0.17 0.22 0.24 0.15 0.08 0.03 0.05 0.02 0.00 0.00 0.00 0.04 0.02 0.03 0.07 0.10 0.16 0.17 0.18 0.16 0.17 0.17 0.16 0.09 0.06 0.01 0.00 0.00 0.00 0.05 0.07 0.06 0.06 0.06
0.05 0.09 0.09 0.09 0.17 0.23 0.30 0.22 0.32 0.34 0.30 0.13 0.09 0.05 0.00 0.00 0.01 0.02 0.00 0.01 0.04 0.08 0.07 0.02 0.01 0.03 0.06 0.06 0.04 0.02 0.02 0.03 0.02 0.01 0.00 0.00 0.03 0.08 0.08 0.12 0.13 0.07 0.08
0.04 0.09 0.16 0.07 0.19 0.24 0.15 0.13 0.19 0.29 0.21 0.02 0.01 0.03 0.02 0.01 0.01 0.05 0.01 0.00 0.02 0.09 0.04 0.03 0.00 0.00 0.00 0.00 0.00 0.00 0.00 0.00 0.00 0.00 0.00 0.03 0.04 0.03 0.06 0.11 0.13 0.17 0.18
0.01 0.01 0.02 0.01 0.03 0.05 0.06 0.05 0.06 0.05 0.18 0.19 0.13 0.07 0.02 0.02 0.02 0.01 0.02 0.01 0.02 0.10 0.02 0.00 0.00 0.00 0.00 0.00 0.00 0.00 0.00 0.00 0.00 0.00 0.01 0.00 0.01 0.03 0.02 0.00 0.01 0.04 0.02
0.00 0.01 0.01 0.00 0.00 0.01 0.00 0.00 0.00 0.01 0.03 0.05 0.07 0.08 0.03 0.00 0.01 0.01 0.00 0.00 0.01 0.00 0.00 0.00 0.00 0.00 0.00 0.00 0.00 0.00 0.00 0.00 0.00 0.01 0.03 0.06 0.07 0.06 0.01 0.00 0.00 0.00 0.00
0.00 0.00 0.00 0.00 0.00 0.00 0.00 0.00 0.00 0.00 0.00 0.00 0.00 0.00 0.00 0.00 0.00 0.00 0.00 0.00 0.00 0.00 0.00 0.00 0.00 0.00 0.00 0.00 0.00 0.00 0.00 0.00 0.00 0.00 0.00 0.01 0.01 0.01 0.02 0.02 0.03 0.04 0.02
0.00 0.00 0.00 0.00 0.00 0.00 0.00 0.00 0.00 0.00 0.00 0.00 0.00 0.00 0.00 0.00 0.00 0.00 0.00 0.00 0.00 0.00 0.00 0.00 0.00 0.00 0.00 0.00 0.00 0.00 0.00 0.00 0.00 0.00 0.00 0.00 0.00 0.00 0.00 0.00 0.01 0.01 0.01
0.01 0.00 0.00 0.00 0.00 0.00 0.00 0.00 0.00 0.00 0.00 0.00 0.00 0.00 0.00 0.00 0.00 0.00 0.00 0.00 0.00 0.00 0.00 0.00 0.00 0.00 0.00 0.00 0.00 0.00 0.00 0.00 0.00 0.00 0.00 0.00 0.00 0.00 0.00 0.00 0.00 0.00 0.00
0.00 0.00 0.00 0.00 0.00 0.00 0.00 0.00 0.00 0.00 0.00 0.00 0.00 0.00 0.00 0.00 0.00 0.00 0.00 0.00 0.00 0.00 0.00 0.00 0.00 0.00 0.00 0.00 0.00 0.00 0.00 0.00 0.00 0.00 0.00 0.00 0.00 0.00 0.00 0.00 0.00 0.00 0.00
0.00 0.00 0.00 0.00 0.00 0.00 0.00 0.00 0.00 0.00 0.00 0.00 0.00 0.00 0.00 0.00 0.00 0.00 0.00 0.00 0.00 0.00 0.00 0.00 0.00 0.00 0.00 0.00 0.00 0.00 0.00 0.00 0.00 0.00 0.00 0.00 0.00 0.00 0.00 0.00 0.00 0.00 0.00
0.00 0.00 0.00 0.00 0.00 0.00 0.00 0.00 0.00 0.00 0.00 0.00 0.00 0.00 0.00 0.00 0.00 0.00 0.00 0.00 0.00 0.00 0.00 0.00 0.00 0.00 0.00 0.00 0.00 0.00 0.00 0.00 0.00 0.00 0.00 0.00 0.00 0.00 0.00 0.00 0.00 0.00 0.00
0.00 0.00 0.00 0.00 0.00 0.00 0.00 0.00 0.00 0.00 0.00 0.00 0.00 0.00 0.00 0.00 0.00 0.00 0.00 0.00 0.00 0.00 0.00 0.00 0.00 0.00 0.00 0.00 0.00 0.00 0.00 0.00 0.00 0.00 0.00 0.00 0.00 0.00 0.00 0.00 0.00 0.00 0.00
0.00 0.00 0.00 0.00 0.00 0.00 0.00 0.00 0.00 0.00 0.00 0.00 0.00 0.00 0.00 0.00 0.00 0.00 0.00 0.00 0.00 0.00 0.00 0.00 0.00 0.00 0.00 0.00 0.00 0.00 0.00 0.00 0.00 0.00 0.00 0.00 0.00 0.00 0.00 0.00 0.00 0.00 0.00
0.00 0.00 0.00 0.00 0.00 0.00 0.00 0.00 0.00 0.00 0.00 0.00 0.00 0.00 0.00 0.00 0.00 0.00 0.00 0.00 0.00 0.00 0.00 0.00 0.00 0.00 0.00 0.00 0.00 0.00 0.00 0.00 0.00 0.00 0.00 0.01 0.01 0.01 0.01 0.01 0.00 0.00 0.00
0.00 0.00 0.00 0.00 0.00 0.00 0.00 0.00 0.00 0.00 0.00 0.00 0.00 0.00 0.00 0.00 0.00 0.00 0.00 0.00 0.00 0.00 0.00 0.00 0.00 0.00 0.00 0.00 0.00 0.00 0.00 0.00 0.00 0.01 0.01 0.01 0.01 0.01 0.01 0.02 0.01 0.01 0.01
0.00 0.00 0.00 0.00 0.00 0.00 0.00 0.00 0.00 0.00 0.00 0.00 0.00 0.00 0.00 0.00 0.00 0.00 0.00 0.00 0.00 0.00 0.00 0.00 0.00 0.00 0.00 0.01 0.01 0.01 0.01 0.01 0.01 0.01 0.03 0.05 0.04 0.02 0.01 0.00 0.01 0.02 0.02
0.00 0.00 0.00 0.00 0.00 0.00 0.00 0.00 0.00 0.00 0.00 0.00 0.00 0.00 0.00 0.00 0.00 0.00 0.00 0.00 0.00 0.00 0.00 0.00 0.00 0.00 0.00 0.00 0.00 0.00 0.00 0.00 0.01 0.02 0.05 0.05 0.03 0.02 0.01 0.00 0.01 0.02 0.02
MSLP
1005.51 1005.54 1005.59 1005.65 1005.74 1005.84 1006.02 1006.03 1006.06 1006.14 1005.99 1006.49 1006.46 1006.75 1007.14 1008.48 1009.52 1010.17 1010.35 1010.81 1010.91 1011.33 1011.26 1011.67 1011.95 1012.14 1012.43 1012.70 1012.85 1013.18 1013.51 1013.73 1013.59 1013.22 1013.09 1012.73 1012.49 1012.52 1012.46 1012.45 1012.59 1012.82 1012.99
1005.50 1005.09 1005.03 1004.99 1005.22 1005.20 1005.02 1005.12 1005.31 1005.26 1005.30 1005.46 1006.42 1007.30 1008.33 1009.52 1007.90 1010.04 1010.06 1010.18 1010.20 1010.28 1010.43 1010.44 1010.96 1011.23 1011.60 1011.88 1012.16 1012.36 1012.58 1012.57 1012.83 1012.88 1012.89 1012.74 1012.52 1012.35 1012.29 1012.42 1012.55 1012.34 1012.50
1005.52 1005.33 1004.69 1004.76 1004.80 1004.62 1004.57 1004.36 1004.41 1004.53 1004.61 1004.79 1006.05 1005.59 1007.23 1008.42 1008.35 1008.19 1009.45 1009.58 1009.82 1009.38 1009.69 1009.52 1009.66 1010.11 1010.60 1011.05 1011.19 1011.34 1011.62 1011.77 1012.06 1012.41 1012.39 1012.27 1012.07 1011.87 1011.87 1012.03 1012.18 1012.31 1011.90
1005.81 1005.30 1004.89 1004.66 1004.67 1004.25 1004.18 1004.01 1003.82 1003.74 1003.87 1004.29 1003.91 1002.88 1005.62 1006.07 1006.85 1007.10 1008.38 1009.27 1009.46 1009.12 1008.95 1008.37 1008.54 1008.85 1009.33 1010.15 1010.33 1010.40 1010.80 1011.26 1011.55 1011.86 1011.85 1011.67 1011.44 1011.09 1011.31 1011.83 1011.83 1011.74 1011.81
1006.05 1005.26 1004.70 1004.38 1004.17 1003.76 1003.53 1003.47 1003.39 1003.24 1003.41 1003.56 1003.83 1004.50 1005.55 1005.13 1006.58 1007.40 1006.72 1007.23 1007.17 1008.51 1008.35 1007.70 1007.26 1007.56 1008.15 1008.92 1009.55 1009.75 1010.25 1010.65 1010.88 1011.20 1011.31 1011.19 1011.04 1011.03 1011.06 1011.27 1011.52 1011.37 1011.17
1006.20 1005.38 1004.85 1004.54 1003.87 1003.31 1003.03 1002.86 1002.82 1002.91 1003.02 1003.04 1003.25 1003.69 1004.07 1005.10 1005.78 1005.35 1006.53 1005.84 1007.16 1007.95 1007.60 1006.45 1006.12 1006.19 1007.01 1007.74 1008.40 1008.85 1009.30 1009.73 1010.03 1010.35 1010.58 1010.57 1010.46 1010.69 1010.79 1010.87 1011.06 1011.40 1011.13
1006.43 1005.70 1005.02 1004.35 1003.40 1002.54 1002.47 1002.60 1002.70 1002.72 1002.66 1002.51 1002.75 1003.08 1003.40 1003.70 1003.98 1004.08 1004.86 1005.43 1006.34 1004.50 1003.84 1005.56 1005.61 1005.57 1006.37 1007.21 1007.83 1008.23 1008.48 1008.83 1009.21 1009.71 1009.87 1009.92 1010.16 1010.52 1010.60 1010.89 1011.12 1010.87 1011.05
1006.83 1006.09 1005.42 1004.61 1003.71 1002.79 1002.54 1002.43 1002.46 1002.69 1002.77 1002.66 1002.85 1003.09 1003.59 1003.43 1003.46 1003.87 1004.54 1004.69 1004.75 1004.82 1005.00 1004.90 1005.24 1005.31 1005.83 1006.67 1007.28 1008.03 1008.27 1008.54 1008.85 1009.24 1009.26 1009.41 1009.96 1010.48 1010.67 1010.76 1010.72 1010.58 1010.59
1007.05 1006.26 1005.62 1005.07 1004.16 1003.46 1002.66 1002.75 1002.54 1002.48 1002.56 1002.77 1002.87 1003.01 1003.26 1003.78 1003.81 1004.09 1004.15 1004.23 1004.66 1004.80 1004.91 1004.96 1005.04 1005.32 1005.87 1006.61 1007.06 1007.51 1007.78 1008.09 1008.50 1008.53 1008.97 1009.14 1009.51 1009.89 1010.23 1010.83 1010.78 1010.61 1010.05
1007.01 1006.19 1005.54 1004.88 1004.00 1003.27 1002.88 1002.34 1002.76 1002.71 1002.42 1002.56 1002.82 1003.15 1003.71 1003.90 1003.98 1004.02 1004.17 1003.54 1004.07 1004.25 1004.31 1005.00 1005.27 1005.58 1006.40 1006.75 1006.91 1007.39 1007.81 1008.21 1008.49 1008.92 1009.15 1009.34 1009.51 1009.74 1009.90 1010.12 1010.32 1010.43 1010.19
1006.85 1006.16 1005.35 1004.72 1003.71 1002.76 1002.48 1002.49 1002.64 1002.25 1002.31 1002.80 1003.21 1003.48 1004.04 1004.59 1004.67 1004.76 1004.35 1004.58 1004.73 1004.48 1004.88 1005.45 1006.00 1006.32 1006.60 1006.95 1007.19 1007.43 1007.80 1008.22 1008.57 1008.89 1009.01 1009.12 1009.29 1009.21 1009.32 1009.32 1009.35 1009.51 1009.28
1006.70 1005.77 1005.23 1004.84 1004.26 1003.78 1002.64 1002.85 1002.75 1002.77 1002.77 1003.13 1003.55 1003.95 1004.36 1004.74 1004.92 1005.02 1005.33 1005.40 1005.39 1005.22 1005.32 1005.65 1006.13 1006.38 1006.72 1006.91 1007.39 1007.48 1007.83 1008.14 1008.29 1008.66 1008.90 1008.68 1008.77 1008.73 1008.64 1008.64 1008.33 1008.82 1008.67
1006.43 1005.72 1005.16 1004.47 1003.80 1003.50 1003.42 1003.60 1003.62 1003.60 1003.45 1003.48 1003.78 1004.23 1004.76 1005.17 1005.20 1005.29 1005.41 1005.41 1005.28 1005.48 1005.72 1006.02 1006.39 1006.52 1006.82 1007.22 1007.44 1007.73 1007.99 1008.20 1008.21 1008.37 1008.19 1008.14 1008.23 1008.18 1008.26 1008.27 1008.25 1008.09 1008.13
1006.28 1005.46 1004.96 1004.66 1004.41 1004.22 1004.02 1004.10 1004.26 1004.41 1004.36 1004.61 1004.74 1004.82 1004.88 1005.40 1005.79 1005.69 1005.88 1005.88 1005.91 1006.16 1006.31 1006.66 1006.79 1006.69 1006.78 1006.84 1007.04 1007.48 1007.48 1007.54 1007.73 1007.75 1007.89 1007.95 1007.93 1007.96 1007.97 1007.98 1008.17 1008.21 1008.19
1006.34 1005.41 1004.44 1004.07 1003.86 1004.24 1004.49 1004.85 1005.02 1005.41 1005.42 1005.36 1005.45 1005.39 1005.49 1006.10 1006.97 1007.17 1006.63 1006.27 1006.41 1006.63 1006.21 1006.09 1006.46 1006.56 1006.62 1006.55 1006.26 1006.18 1006.47 1006.86 1007.42 1007.59 1007.66 1007.79 1007.85 1007.68 1007.79 1007.71 1007.88 1007.99 1007.96
1006.63 1005.54 1005.02 1004.14 1003.78 1004.00 1004.54 1005.17 1005.72 1006.00 1006.01 1005.60 1005.31 1005.47 1006.27 1006.61 1006.97 1006.89 1006.74 1006.62 1006.51 1006.41 1006.15 1005.63 1005.36 1005.28 1005.38 1005.68 1005.77 1005.91 1006.23 1006.57 1007.08 1007.50 1007.71 1007.76 1007.82 1007.84 1007.61 1007.48 1007.39 1007.58 1007.70
1006.75 1005.92 1005.35 1004.73 1004.65 1004.33 1004.37 1004.97 1005.61 1006.47 1006.55 1006.36 1006.34 1006.13 1006.14 1006.79 1007.21 1007.14 1006.90 1006.60 1006.34 1006.42 1006.08 1005.13 1004.99 1005.16 1005.26 1005.51 1005.85 1006.23 1006.49 1007.03 1007.25 1007.57 1007.65 1007.87 1007.81 1007.90 1007.90 1007.71 1007.68 1007.44 1007.38
1006.45 1005.99 1005.66 1005.30 1005.22 1004.93 1004.86 1004.64 1004.76 1005.60 1006.13 1006.57 1007.03 1007.02 1007.10 1007.13 1007.29 1007.32 1007.30 1006.87 1006.40 1006.41 1005.97 1005.28 1005.28 1005.43 1005.64 1005.97 1006.34 1006.65 1006.97 1007.08 1007.27 1007.47 1007.63 1007.59 1007.71 1007.82 1007.93 1007.79 1007.60 1007.29 1007.34
1006.64 1006.37 1006.04 1005.47 1005.30 1005.31 1005.23 1005.03 1005.03 1005.21 1005.26 1005.63 1006.74 1007.27 1007.48 1007.60 1007.63 1007.54 1007.38 1007.07 1006.30 1005.70 1005.49 1005.32 1005.45 1005.57 1005.87 1006.39 1006.70 1006.89 1006.97 1007.25 1007.62 1007.54 1007.56 1007.45 1007.47 1007.54 1007.75 1007.75 1007.68 1007.46 1007.30
1006.54 1006.30 1006.06 1005.64 1005.22 1005.32 1005.30 1005.42 1005.32 1005.38 1005.42 1005.38 1005.52 1006.17 1006.72 1007.25 1007.32 1007.05 1006.88 1006.45 1005.96 1005.47 1005.08 1005.11 1005.20 1005.45 1005.97 1006.34 1006.51 1006.71 1006.90 1006.91 1007.05 1007.11 1007.07 1006.86 1006.99 1007.21 1007.40 1007.46 1007.33 1006.97 1006.84
1006.42 1006.26 1006.26 1005.87 1005.16 1005.23 1005.30 1005.42 1005.28 1005.10 1005.08 1005.23 1005.39 1005.59 1005.61 1005.77 1005.75 1005.63 1005.60 1005.61 1005.07 1004.80 1004.93 1005.11 1005.13 1005.69 1005.84 1006.31 1006.60 1006.52 1006.59 1006.51 1006.41 1006.59 1006.75 1006.49 1006.55 1006.78 1006.78 1006.53 1006.75 1006.67 1006.60
1006.58 1006.31 1006.33 1006.15 1005.56 1005.61 1005.48 1005.37 1005.26 1004.79 1004.84 1005.10 1005.20 1005.56 1005.42 1005.57 1005.45 1005.34 1005.03 1004.76 1004.65 1004.40 1004.30 1004.51 1004.79 1005.13 1005.17 1005.42 1005.38 1005.46 1005.89 1005.97 1005.82 1005.98 1006.16 1005.93 1006.18 1006.25 1006.26 1006.24 1006.21 1006.25 1006.26
1006.96 1006.66 1006.57 1006.35 1006.05 1005.77 1005.45 1005.62 1005.54 1005.16 1005.17 1005.12 1005.61 1006.16 1006.42 1006.41 1006.45 1006.28 1006.15 1005.91 1005.57 1005.53 1005.51 1005.47 1005.59 1005.61 1005.71 1005.76 1005.58 1005.36 1005.64 1005.73 1005.51 1005.48 1005.64 1005.68 1005.77 1006.07 1006.14 1006.20 1006.12 1005.84 1005.84
1007.23 1007.07 1006.68 1006.13 1005.99 1005.80 1005.76 1005.55 1005.40 1005.39 1005.40 1005.78 1005.79 1006.30 1006.46 1006.46 1006.44 1006.54 1006.71 1006.84 1006.64 1006.27 1006.23 1006.06 1006.15 1006.20 1006.60 1007.09 1007.11 1007.45 1007.35 1007.44 1006.53 1005.99 1005.53 1005.35 1005.49 1005.71 1005.77 1005.85 1005.88 1005.74 1005.48
1006.97 1007.16 1006.93 1006.70 1006.50 1006.42 1006.39 1006.32 1006.18 1006.23 1006.04 1005.96 1006.31 1006.49 1006.65 1006.84 1007.23 1007.62 1007.28 1007.34 1007.32 1007.21 1007.03 1006.78 1006.67 1006.67 1007.36 1007.60 1008.56 1008.23 1007.77 1008.07 1007.41 1007.14 1005.94 1006.04 1005.50 1005.27 1005.28 1005.30 1005.10 1004.86 1004.90
1007.59 1007.71 1007.57 1007.53 1007.49 1007.54 1007.52 1007.37 1007.17 1006.92 1006.93 1006.86 1006.89 1007.05 1007.42 1007.29 1007.38 1007.85 1008.08 1007.90 1007.81 1007.52 1007.36 1007.31 1007.05 1006.85 1006.55 1007.60 1008.32 1008.10 1008.04 1008.31 1008.17 1007.74 1007.09 1006.18 1005.31 1004.85 1004.47 1004.75 1004.64 1004.41 1004.23
Thickness
5758 5756 5751 5750 5754 5757 5759 5764 5770 5773 5777 5774 5779 5781 5780 5765 5762 5761 5762 5761 5764 5761 5768 5764 5764 5765 5765 5766 5768 5766 5763 5760 5757 5762 5769 5773 5775 5774 5773 5773 5771 5769 5766
5744 5745 5743 5743 5741 5745 5752 5756 5759 5764 5769 5771 5765 5752 5744 5742 5762 5750 5757 5757 5760 5763 5764 5770 5765 5767 5765 5767 5768 5765 5765 5767 5763 5758 5763 5766 5768 5772 5771 5769 5769 5768 5765
5728 5727 5734 5732 5731 5736 5742 5748 5751 5753 5757 5760 5750 5744 5726 5719 5728 5754 5749 5750 5753 5763 5764 5768 5771 5770 5765 5765 5769 5770 5768 5767 5766 5761 5760 5765 5766 5771 5769 5767 5765 5764 5765
5714 5716 5717 5718 5720 5728 5733 5739 5744 5746 5746 5746 5726 5726 5736 5734 5742 5751 5744 5740 5745 5755 5761 5773 5772 5773 5770 5763 5766 5769 5767 5764 5763 5760 5759 5761 5763 5769 5766 5757 5757 5760 5759
5700 5704 5709 5712 5715 5720 5726 5730 5734 5735 5735 5744 5743 5743 5738 5748 5738 5736 5746 5744 5726 5739 5755 5768 5776 5776 5773 5767 5763 5766 5762 5760 5759 5756 5755 5757 5758 5757 5756 5758 5754 5757 5759
5685 5692 5697 5700 5707 5714 5720 5724 5726 5726 5727 5735 5738 5739 5738 5738 5739 5750 5739 5750 5742 5718 5747 5767 5775 5777 5774 5767 5764 5764 5762 5758 5756 5754 5753 5751 5752 5753 5753 5751 5748 5742 5742
5672 5679 5686 5692 5702 5713 5715 5716 5718 5720 5722 5728 5731 5733 5735 5740 5744 5750 5747 5744 5736 5735 5748 5755 5764 5772 5767 5762 5758 5757 5758 5758 5756 5752 5748 5748 5746 5747 5747 5741 5735 5737 5735
5662 5668 5673 5682 5691 5702 5706 5708 5711 5713 5714 5719 5723 5727 5724 5732 5738 5740 5735 5737 5745 5747 5748 5756 5756 5762 5761 5756 5753 5748 5749 5749 5749 5746 5747 5746 5743 5741 5740 5737 5734 5734 5736
5653 5659 5664 5667 5677 5683 5693 5697 5701 5707 5710 5710 5714 5717 5720 5719 5725 5729 5734 5735 5735 5736 5740 5745 5750 5752 5749 5745 5745 5742 5742 5740 5739 5738 5737 5737 5734 5733 5731 5727 5724 5723 5726
5647 5653 5656 5663 5670 5676 5683 5692 5693 5699 5705 5706 5707 5707 5705 5711 5713 5719 5725 5736 5733 5734 5738 5735 5737 5739 5734 5734 5736 5733 5729 5726 5726 5723 5725 5726 5726 5725 5723 5724 5722 5718 5719
5649 5654 5658 5662 5663 5674 5683 5688 5687 5694 5696 5694 5695 5696 5697 5696 5701 5704 5714 5715 5717 5721 5720 5718 5720 5718 5720 5721 5723 5721 5718 5716 5715 5713 5713 5714 5715 5716 5716 5718 5720 5722 5719
5650 5655 5659 5662 5664 5665 5668 5678 5681 5687 5688 5688 5686 5686 5688 5690 5691 5695 5694 5696 5703 5708 5708 5708 5709 5708 5708 5712 5711 5711 5707 5705 5707 5702 5702 5705 5705 5708 5710 5713 5723 5718 5711
5651 5654 5657 5663 5669 5674 5674 5674 5672 5676 5677 5680 5679 5680 5680 5683 5687 5688 5691 5693 5696 5699 5700 5701 5698 5700 5699 5698 5699 5699 5697 5699 5698 5695 5698 5701 5702 5703 5705 5708 5709 5712 5714
5650 5656 5660 5660 5664 5669 5673 5672 5671 5669 5673 5673 5673 5674 5678 5680 5679 5683 5684 5687 5688 5689 5690 5690 5691 5695 5696 5697 5696 5693 5694 5696 5695 5695 5694 5695 5697 5698 5698 5700 5698 5699 5699
5647 5656 5665 5671 5674 5671 5669 5668 5668 5661 5664 5669 5671 5671 5675 5672 5667 5663 5671 5678 5679 5678 5684 5688 5686 5687 5688 5690 5695 5699 5698 5694 5689 5689 5689 5688 5688 5693 5692 5694 5694 5693 5692
5639 5652 5658 5667 5672 5671 5668 5665 5656 5654 5655 5659 5664 5670 5665 5660 5658 5659 5663 5666 5669 5672 5681 5684 5687 5689 5690 5689 5691 5693 5693 5691 5687 5682 5680 5681 5682 5683 5686 5688 5690 5687 5685
5634 5645 5653 5659 5659 5663 5664 5660 5658 5651 5648 5650 5651 5654 5660 5655 5653 5655 5658 5662 5665 5666 5675 5683 5684 5684 5685 5684 5684 5682 5680 5678 5677 5675 5675 5674 5676 5675 5674 5676 5678 5681 5681
5637 5642 5647 5652 5653 5655 5656 5659 5660 5653 5652 5652 5644 5646 5645 5647 5648 5650 5651 5657 5667 5663 5668 5674 5675 5675 5675 5674 5672 5670 5669 5668 5669 5669 5668 5670 5669 5667 5665 5666 5669 5672 5672
5634 5637 5642 5649 5651 5650 5651 5653 5655 5654 5656 5656 5646 5642 5640 5639 5641 5643 5646 5654 5661 5666 5668 5669 5668 5670 5667 5665 5663 5662 5662 5660 5657 5658 5660 5661 5662 5661 5658 5658 5658 5657 5660
5634 5637 5638 5644 5648 5647 5647 5646 5648 5648 5650 5652 5655 5652 5647 5641 5645 5649 5650 5654 5658 5661 5665 5664 5664 5663 5658 5655 5654 5653 5651 5652 5651 5651 5652 5655 5653 5652 5648 5648 5649 5652 5653
5634 5636 5634 5639 5646 5645 5645 5643 5646 5648 5649 5649 5651 5652 5650 5653 5653 5654 5654 5652 5656 5658 5657 5654 5653 5650 5649 5646 5643 5644 5643 5644 5646 5643 5642 5644 5644 5642 5643 5643 5642 5642 5642
5628 5632 5632 5633 5641 5639 5639 5643 5643 5646 5647 5645 5647 5647 5645 5648 5647 5647 5649 5651 5651 5654 5655 5651 5647 5643 5643 5643 5644 5642 5637 5636 5637 5635 5634 5635 5632 5632 5633 5632 5632 5631 5629
5623 5627 5627 5627 5631 5633 5636 5634 5634 5638 5638 5639 5636 5632 5631 5630 5628 5628 5629 5631 5634 5632 5631 5630 5628 5629 5629 5631 5632 5633 5629 5627 5627 5627 5624 5623 5621 5617 5616 5614 5614 5616 5616
5617 5616 5621 5627 5627 5629 5628 5630 5631 5630 5629 5625 5626 5622 5620 5619 5618 5616 5615 5612 5614 5615 5615 5611 5609 5608 5607 5601 5600 5595 5596 5595 5601 5604 5608 5608 5604 5600 5599 5597 5596 5596 5599
5615 5613 5613 5616 5617 5617 5616 5616 5617 5615 5616 5616 5614 5612 5609 5605 5602 5597 5599 5598 5596 5593 5592 5592 5589 5588 5583 5582 5573 5574 5575 5571 5574 5576 5585 5583 5585 5585 5583 5584 5585 5586 5584
5604 5603 5603 5602 5602 5600 5599 5598 5599 5600 5599 5599 5598 5595 5591 5591 5588 5583 5580 5580 5578 5577 5577 5574 5572 5571 5570 5568 5558 5556 5554 5550 5550 5552 5555 5560 5565 5568 5569 5567 5569 5570 5571